GM4SUF Weather Reports


time (UTC)temp
C
wind
direction
speed
KPH
gust
KPH
rain 1hr
cm
rain 24hr
cm
rain mn
cm
humidity
%
barometer
mb
20260506215216 7 233 3.2 6.4 0.00 0.00 0.00 100 1011.0
20260506214948 7 233 3.2 6.4 0.00 0.00 0.00 100 1011.1
20260506214215 7 233 3.2 6.4 0.00 0.00 0.00 100 1011.1
20260506213713 7 233 1.6 3.2 0.00 0.00 0.00 100 1011.2
20260506213215 7 233 0.0 3.2 0.00 0.00 0.00 100 1011.2
20260506212713 7 233 0.0 3.2 0.00 0.00 0.00 100 1011.1
20260506212211 7 233 1.6 8.0 0.00 0.00 0.00 100 1011.2
20260506211707 7 233 3.2 8.0 0.00 0.00 0.00 100 1011.3
20260506211203 7 233 3.2 6.4 0.00 0.00 0.00 100 1011.2
20260506210703 7 233 3.2 6.4 0.00 0.00 0.00 100 1011.3
20260506210205 7 233 4.8 8.0 0.00 0.00 0.00 100 1011.3
20260506205940 7 233 4.8 8.0 0.00 0.00 0.00 100 1011.3
20260506205440 7 198 3.2 8.0 0.00 0.00 0.00 100 1011.3
20260506204700 7 88 0.0 4.8 0.00 0.00 0.00 100 1011.3
20260506204201 7 88 0.0 0.0 0.00 0.00 0.00 100 1011.4
20260506203655 7 88 0.0 0.0 0.00 0.00 0.00 100 1011.3
20260506203156 7 88 0.0 0.0 0.00 0.00 0.00 100 1011.4
20260506202653 7 87 0.0 0.0 0.00 0.00 0.00 100 1011.3
20260506202153 7 87 0.0 0.0 0.00 0.00 0.00 100 1011.5
20260506201654 8 88 0.0 1.6 0.00 0.00 0.00 100 1011.6
20260506201153 8 87 0.0 1.6 0.00 0.00 0.00 100 1011.6
20260506200650 8 88 0.0 1.6 0.00 0.00 0.00 100 1011.6
20260506200149 8 88 0.0 3.2 0.00 0.00 0.00 100 1011.7
20260506195649 8 87 0.0 3.2 0.00 0.00 0.00 100 1011.7
20260506195146 8 88 0.0 3.2 0.00 0.00 0.00 100 1011.7
20260506194644 8 88 1.6 3.2 0.00 0.00 0.00 100 1011.7
20260506194147 8 87 1.6 4.8 0.00 0.00 0.00 100 1011.7
20260506193645 8 87 1.6 4.8 0.00 0.00 0.00 100 1011.8
20260506193143 8 88 1.6 4.8 0.00 0.00 0.00 100 1011.8
20260506192643 8 87 0.0 4.8 0.00 0.00 0.00 100 1011.9
20260506192145 9 96 0.0 3.2 0.00 0.00 0.00 100 1011.9
20260506191646 9 96 1.6 4.8 0.00 0.00 0.00 100 1012.0
20260506191142 9 96 1.6 4.8 0.00 0.00 0.00 100 1011.9
20260506190642 9 96 1.6 4.8 0.00 0.00 0.00 100 1011.8
20260506190142 9 97 3.2 9.7 0.00 0.00 0.00 100 1011.8
20260506185641 9 96 3.2 9.7 0.00 0.00 0.00 100 1011.8
20260506185136 9 93 3.2 11.3 0.00 0.00 0.00 100 1011.8
20260506184905 9 92 4.8 11.3 0.00 0.00 0.00 100 1011.8
20260506184135 9 90 4.8 11.3 0.00 0.00 0.00 100 1011.8
20260506183905 9 87 4.8 12.9 0.00 0.00 0.00 100 1011.8
20260506183131 9 119 4.8 12.9 0.00 0.00 0.00 100 1011.8
20260506182859 9 87 4.8 12.9 0.00 0.00 0.00 100 1011.8
20260506182130 10 113 6.4 12.9 0.00 0.00 0.00 100 1011.9
20260506181626 10 114 6.4 12.9 0.00 0.00 0.00 100 1011.9
20260506181121 10 101 4.8 12.9 0.00 0.00 0.00 100 1012.0
20260506180854 9 95 6.4 11.3 0.00 0.00 0.00 100 1012.0
20260506180118 9 93 6.4 14.5 0.00 0.00 0.00 100 1012.0
20260506175616 9 86 6.4 14.5 0.00 0.00 0.00 100 1012.0
20260506175117 9 94 6.4 14.5 0.00 0.00 0.00 100 1012.0
20260506174616 9 94 6.4 14.5 0.00 0.00 0.00 100 1012.0
20260506174118 9 122 6.4 14.5 0.00 0.00 0.00 100 1012.1
20260506173857 10 90 6.4 12.9 0.00 0.00 0.00 100 1012.0
20260506173116 10 99 6.4 16.1 0.00 0.00 0.00 100 1012.0
20260506172618 10 130 6.4 16.1 0.00 0.00 0.00 100 1012.1
20260506172118 10 92 6.4 14.5 0.00 0.00 0.00 100 1012.0
20260506171616 10 76 6.4 14.5 0.00 0.00 0.00 100 1012.1
20260506171116 10 90 6.4 14.5 0.00 0.00 0.00 100 1012.1
20260506170629 10 82 6.4 12.9 0.00 0.00 0.00 100 1012.2
20260506170117 11 87 6.4 9.7 0.00 0.00 0.00 100 1012.3
20260506165614 11 94 6.4 12.9 0.00 0.00 0.00 100 1012.2
20260506165112 11 90 6.4 12.9 0.00 0.00 0.00 100 1012.3
20260506164612 11 105 6.4 14.5 0.00 0.00 0.00 100 1012.4
20260506164112 11 74 6.4 14.5 0.00 0.00 0.00 100 1012.4
20260506163612 11 89 8.0 16.1 0.00 0.00 0.00 100 1012.4
20260506163110 11 113 8.0 16.1 0.00 0.00 0.00 100 1012.4
20260506162610 11 80 8.0 16.1 0.00 0.00 0.00 100 1012.4
20260506162352 11 106 8.0 14.5 0.00 0.00 0.00 100 1012.4
20260506161608 11 97 8.0 17.7 0.00 0.00 0.00 100 1012.5
20260506161108 11 92 8.0 17.7 0.00 0.00 0.00 100 1012.4
20260506160656 11 77 9.7 16.1 0.00 0.00 0.00 100 1012.5
20260506160622 11 98 8.0 14.5 0.00 0.00 0.00 100 1012.4
20260506155619 11 99 9.7 16.1 0.00 0.00 0.00 100 1012.5
20260506155115 11 90 8.0 16.1 0.00 0.00 0.00 100 1012.6
20260506155107 11 88 9.7 16.1 0.00 0.00 0.00 100 1012.6
20260506154105 11 57 8.0 12.9 0.00 0.00 0.00 100 1012.6
20260506153837 12 78 9.7 14.5 0.00 0.00 0.00 100 1012.6
20260506153104 12 75 9.7 16.1 0.00 0.00 0.00 100 1012.8
20260506152832 12 72 9.7 16.1 0.00 0.00 0.00 100 1012.8
20260506152059 12 68 9.7 16.1 0.00 0.00 0.00 100 1012.8
20260506151839 12 88 8.0 12.9 0.00 0.00 0.00 100 1012.9
20260506151351 11 87 9.7 14.5 0.00 0.00 0.00 100 1012.9
20260506151343 11 78 8.0 14.5 0.00 0.00 0.00 100 1012.9
20260506150058 11 80 9.7 14.5 0.00 0.00 0.00 100 1012.9
20260506145557 11 80 9.7 14.5 0.00 0.00 0.00 100 1012.9
20260506145056 11 69 9.7 14.5 0.00 0.00 0.00 100 1013.0
20260506144557 11 73 9.7 14.5 0.00 0.00 0.00 100 1013.1
20260506144055 11 65 8.0 14.5 0.00 0.00 0.00 100 1013.1
20260506143824 11 75 8.0 14.5 0.00 0.00 0.00 100 1013.0
20260506143052 11 83 6.4 12.9 0.00 0.00 0.00 100 1013.0
20260506142554 11 74 6.4 12.9 0.00 0.00 0.00 100 1013.1
20260506142058 11 78 8.0 12.9 0.00 0.00 0.00 100 1013.2
20260506141554 11 90 8.0 12.9 0.00 0.00 0.00 100 1013.3
20260506141332 11 65 8.0 12.9 0.00 0.00 0.00 100 1013.4
20260506140552 11 75 8.0 12.9 0.00 0.00 0.00 100 1013.4
20260506140052 11 78 9.7 14.5 0.00 0.00 0.00 100 1013.3
20260506135549 10 78 11.3 14.5 0.00 0.00 0.00 100 1013.4
20260506135326 11 74 9.7 14.5 0.00 0.00 0.00 100 1013.4
20260506134819 11 79 8.0 14.5 0.00 0.00 0.00 100 1013.4
20260506134045 11 80 8.0 12.9 0.00 0.00 0.00 100 1013.5
20260506133547 11 83 6.4 12.9 0.00 0.00 0.00 100 1013.4
20260506133046 11 71 6.4 12.9 0.00 0.00 0.00 100 1013.5
20260506132545 11 87 8.0 12.9 0.00 0.00 0.00 100 1013.4
20260506132045 11 75 8.0 14.5 0.00 0.00 0.00 100 1013.5
20260506131811 11 79 8.0 14.5 0.00 0.00 0.00 100 1013.5
20260506131043 11 72 8.0 12.9 0.00 0.00 0.00 100 1013.5
20260506130542 11 82 9.7 16.1 0.00 0.00 0.00 100 1013.6
20260506130100 11 69 9.7 16.1 0.00 0.00 0.00 100 1013.5
20260506125810 11 73 9.7 14.5 0.00 0.00 0.00 100 1013.5
20260506125037 11 57 8.0 14.5 0.00 0.00 0.00 100 1013.6
20260506124539 11 74 8.0 12.9 0.00 0.00 0.00 100 1013.7
20260506124039 11 74 8.0 12.9 0.00 0.00 0.00 100 1013.7
20260506123806 11 74 8.0 12.9 0.00 0.00 0.00 100 1013.7
20260506123308 12 80 6.4 12.9 0.00 0.00 0.00 100 1014.0
20260506122533 12 80 6.4 14.5 0.00 0.00 0.00 100 1014.0
20260506122035 13 94 6.4 14.5 0.00 0.00 0.00 100 1014.0
20260506121559 13 88 6.4 16.1 0.00 0.00 0.00 100 1014.0
20260506121546 13 76 6.4 16.1 0.00 0.00 0.00 100 1013.9
20260506120758 12 84 6.4 12.9 0.00 0.00 0.00 100 1014.0
20260506120033 12 96 6.4 14.5 0.00 0.00 0.00 100 1014.0
20260506115534 12 99 6.4 14.5 0.00 0.00 0.00 100 1014.0
20260506115044 12 94 6.4 14.5 0.00 0.00 0.00 100 1014.2
20260506115034 12 89 6.4 12.9 0.00 0.00 0.00 100 1014.1
20260506114032 12 81 6.4 14.5 0.00 0.00 0.00 100 1014.2
20260506113535 12 109 8.0 19.3 0.00 0.00 0.00 100 1014.3
20260506113029 12 119 6.4 19.3 0.00 0.00 0.00 100 1014.3
20260506112534 11 78 6.4 12.9 0.00 0.00 0.00 100 1014.4
20260506112039 11 98 6.4 12.9 0.00 0.00 0.00 100 1014.4
20260506111531 11 98 6.4 16.1 0.00 0.00 0.00 100 1014.4
20260506111029 11 117 6.4 16.1 0.00 0.00 0.00 100 1014.5
20260506110540 11 106 4.8 14.5 0.00 0.00 0.00 100 1014.5
20260506110302 11 94 4.8 11.3 0.00 0.00 0.00 100 1014.5
20260506105527 10 78 4.8 11.3 0.00 0.00 0.00 100 1014.5
20260506105028 10 82 4.8 9.7 0.00 0.00 0.00 100 1014.5
20260506104526 10 86 4.8 9.7 0.00 0.00 0.00 100 1014.5
20260506104259 9 95 4.8 12.9 0.00 0.00 0.00 100 1014.5
20260506103523 9 66 6.4 12.9 0.00 0.00 0.00 100 1014.5
20260506103026 9 76 6.4 11.3 0.00 0.00 0.00 100 1014.5
20260506102521 9 72 6.4 11.3 0.00 0.00 0.00 100 1014.6
20260506102019 8 89 4.8 11.3 0.00 0.00 0.00 100 1014.7
20260506101519 8 80 6.4 12.9 0.00 0.00 0.00 100 1014.7
20260506101017 8 122 6.4 12.9 0.00 0.00 0.00 100 1014.6
20260506100517 8 71 6.4 11.3 0.00 0.00 0.00 100 1014.5
20260506100255 8 85 6.4 12.9 0.00 0.00 0.00 100 1014.6
20260506095518 8 92 6.4 12.9 0.00 0.00 0.00 100 1014.5
20260506095019 8 69 6.4 12.9 0.00 0.00 0.00 100 1014.6
20260506094517 8 78 6.4 12.9 0.00 0.00 0.00 100 1014.6
20260506094016 9 71 6.4 11.3 0.00 0.00 0.00 100 1014.7
20260506093517 9 65 6.4 11.3 0.00 0.00 0.00 100 1014.7
20260506093022 9 80 8.0 16.1 0.00 0.00 0.00 100 1014.8
20260506092523 9 75 6.4 16.1 0.00 0.00 0.00 100 1014.8
20260506092022 9 80 6.4 11.3 0.00 0.00 0.00 100 1014.8
20260506091520 9 80 6.4 11.3 0.00 0.00 0.00 100 1014.9
20260506091015 10 71 6.4 12.9 0.00 0.00 0.00 100 1014.9
20260506090516 10 59 6.4 12.9 0.00 0.00 0.00 100 1015.0
20260506090248 10 94 4.8 11.3 0.00 0.00 0.00 100 1015.1
20260506085516 10 67 4.8 11.3 0.00 0.00 0.00 100 1015.2
20260506085248 9 104 4.8 11.3 0.00 0.00 0.00 100 1015.3
20260506084516 9 83 4.8 9.7 0.00 0.00 0.00 100 1015.4
20260506084025 8 76 4.8 9.7 0.00 0.00 0.00 100 1015.4
20260506084021 8 83 4.8 9.7 0.00 0.00 0.00 100 1015.5
20260506083002 8 65 4.8 9.7 0.00 0.00 0.00 100 1015.6
20260506082535 8 55 3.2 8.0 0.00 0.00 0.00 100 1015.6
20260506082516 8 66 4.8 8.0 0.00 0.00 0.00 100 1015.5
20260506081501 8 52 3.2 8.0 0.00 0.00 0.00 100 1015.7
20260506081001 8 52 4.8 8.0 0.00 0.00 0.00 100 1015.8
20260506080502 8 39 3.2 8.0 0.00 0.00 0.00 100 1015.6
20260506073452 6 258 1.6 4.8 0.00 0.00 0.00 100 1015.7
20260506073238 6 257 1.6 4.8 0.00 0.00 0.00 100 1015.7
20260506072453 5 257 3.2 6.4 0.00 0.00 0.00 100 1015.7
20260506071952 5 258 3.2 6.4 0.00 0.00 0.00 100 1015.8
20260506071450 5 258 1.6 4.8 0.00 0.00 0.00 100 1015.8
20260506071225 5 258 1.6 4.8 0.00 0.00 0.00 100 1015.9
20260506070449 4 258 0.0 3.2 0.00 0.00 0.00 100 1015.9
20260506062442 1 257 1.6 4.8 0.00 0.00 0.00 100 1016.1
20260506061945 1 209 0.0 4.8 0.00 0.00 0.00 100 1016.0
20260506061438 1 209 0.0 0.0 0.00 0.00 0.00 100 1016.0
20260506060936 1 209 0.0 1.6 0.00 0.00 0.00 100 1016.1
20260506060436 1 209 1.6 3.2 0.00 0.00 0.00 100 1016.1
20260506050928 0 209 1.6 4.8 0.00 0.00 0.00 100 1016.2
20260506050427 0 209 0.0 0.0 0.00 0.00 0.00 100 1016.3
20260506044413 0 207 0.0 0.0 0.00 0.00 0.00 100 1016.3
20260506043912 0 207 0.0 0.0 0.00 0.00 0.00 100 1016.4
20260506043412 0 207 1.6 4.8 0.00 0.00 0.00 100 1016.4
20260506042913 0 207 1.6 4.8 0.00 0.00 0.00 100 1016.3
20260506042412 0 207 1.6 4.8 0.00 0.00 0.00 100 1016.3
20260506042203 0 207 0.0 3.2 0.00 0.00 0.00 100 1016.4
20260506041649 0 207 0.0 4.8 0.00 0.00 0.00 100 1016.5
20260506041203 0 207 0.0 4.8 0.00 0.00 0.00 100 1016.5
20260506040412 0 207 0.0 3.2 0.00 0.00 0.00 100 1016.5
20260506035914 0 207 1.6 4.8 0.00 0.00 0.00 100 1016.5
20260506035413 0 207 3.2 4.8 0.00 0.00 0.00 100 1016.5
20260506034914 0 207 3.2 4.8 0.00 0.00 0.00 100 1016.5
20260506034413 0 207 3.2 6.4 0.00 0.00 0.00 100 1016.5
20260506034201 0 207 3.2 6.4 0.00 0.00 0.00 100 1016.6
20260506033412 0 207 3.2 6.4 0.00 0.00 0.00 100 1016.7
20260506032914 0 207 3.2 6.4 0.00 0.00 0.00 100 1016.7
20260506032717 0 207 3.2 4.8 0.00 0.00 0.00 100 1016.8
20260506032431 0 207 4.8 6.4 0.00 0.00 0.00 100 1016.7
20260506031408 0 207 3.2 4.8 0.00 0.00 0.00 100 1016.7
20260506030909 0 207 3.2 4.8 0.00 0.00 0.00 100 1016.8
20260506030410 0 207 3.2 4.8 0.00 0.00 0.00 100 1016.8
20260506025909 0 207 3.2 4.8 0.00 0.00 0.00 100 1016.8
20260506025410 0 207 1.6 4.8 0.00 0.00 0.00 100 1016.9
20260506025212 0 207 1.6 3.2 0.00 0.00 0.00 100 1016.8
20260506024405 0 207 3.2 4.8 0.00 0.00 0.00 100 1016.8
20260506024150 0 207 3.2 4.8 0.00 0.00 0.00 100 1016.8
20260506023648 0 207 1.6 4.8 0.00 0.00 0.00 100 1016.8
20260506022907 0 207 0.0 3.2 0.00 0.00 0.00 100 1016.8
20260506022404 0 207 1.6 6.4 0.00 0.00 0.00 100 1016.8
20260506021902 0 207 3.2 6.4 0.00 0.00 0.00 100 1016.8
20260506021403 0 207 3.2 4.8 0.00 0.00 0.00 100 1016.9
20260506021137 0 207 3.2 4.8 0.00 0.00 0.00 100 1016.9
20260506020402 0 207 3.2 4.8 0.00 0.00 0.00 100 1016.9
20260506015905 0 207 3.2 4.8 0.00 0.00 0.00 100 1017.0
20260506015405 0 207 1.6 4.8 0.00 0.00 0.00 100 1017.0
20260506014903 0 207 1.6 6.4 0.00 0.00 0.00 100 1017.0
20260506014403 0 207 4.8 9.7 0.00 0.00 0.00 100 1017.0
20260506013906 0 207 4.8 9.7 0.00 0.00 0.00 100 1017.1
20260506013404 0 260 3.2 6.4 0.00 0.00 0.00 100 1017.1
20260506012907 0 261 4.8 6.4 0.00 0.00 0.00 100 1017.2
20260506012402 0 261 3.2 9.7 0.00 0.00 0.00 100 1017.2
20260506011904 0 261 1.6 9.7 0.00 0.00 0.00 100 1017.2
20260506011402 0 261 3.2 9.7 0.00 0.00 0.00 100 1017.3
20260506011217 0 234 3.2 4.8 0.00 0.00 0.00 100 1017.2
20260506010921 0 261 4.8 9.7 0.00 0.00 0.00 100 1017.2
20260506010152 0 234 4.8 6.4 0.00 0.00 0.00 100 1017.1
20260506005357 0 233 4.8 6.4 0.00 0.00 0.00 100 1017.2
20260506004857 0 233 4.8 11.3 0.00 0.00 0.00 100 1017.2
20260506004356 0 234 4.8 11.3 0.00 0.00 0.00 100 1017.3
20260506003857 0 234 4.8 11.3 0.00 0.00 0.00 100 1017.3
20260506003357 0 234 4.8 11.3 0.00 0.00 0.00 100 1017.4
20260506002856 0 227 4.8 11.3 0.00 0.00 0.00 100 1017.4
20260506002353 0 228 4.8 11.3 0.00 0.00 0.00 100 1017.4
20260506001853 0 234 4.8 11.3 0.00 0.00 0.00 100 1017.4
20260506001633 0 233 3.2 8.0 0.00 0.00 0.00 100 1017.4
20260506000852 0 234 4.8 8.0 0.00 0.00 0.00 100 1017.4
20260506000629 0 234 4.8 8.0 0.00 0.00 0.00 100 1017.5
20260505235850 0 234 4.8 6.4 0.00 0.00 0.00 100 1017.4
20260505235350 0 234 3.2 6.4 0.00 0.00 0.00 100 1017.5
20260505234851 0 233 3.2 4.8 0.00 0.00 0.00 100 1017.3
20260505234629 0 233 4.8 6.4 0.00 0.00 0.00 100 1017.4
20260505233851 1 233 4.8 6.4 0.00 0.00 0.00 100 1017.4
20260505233345 1 214 3.2 6.4 0.00 0.00 0.00 100 1017.4
20260505232837 1 214 3.2 6.4 0.00 0.00 0.00 100 1017.4
20260505232335 1 214 4.8 8.0 0.00 0.00 0.00 100 1017.5
20260505231837 1 214 3.2 8.0 0.00 0.00 0.00 100 1017.4
20260505231334 1 214 3.2 6.4 0.00 0.00 0.00 100 1017.5
20260505230833 2 214 3.2 6.4 0.00 0.00 0.00 100 1017.4
20260505230416 2 214 4.8 8.0 0.00 0.00 0.00 100 1017.5
20260505230359 2 214 4.8 6.4 0.00 0.00 0.00 100 1017.5
20260505225336 2 214 4.8 8.0 0.00 0.00 0.00 100 1017.6
20260505224840 2 214 4.8 6.4 0.00 0.00 0.00 100 1017.6
20260505224342 3 214 4.8 6.4 0.00 0.00 0.00 100 1017.7
20260505223806 3 214 4.8 8.0 0.00 0.00 0.00 100 1017.7
20260505223305 4 207 3.2 8.0 0.00 0.00 0.00 100 1017.7
20260505222806 4 169 3.2 8.0 0.00 0.00 0.00 100 1017.6
20260505222309 4 203 1.6 4.8 0.00 0.00 0.00 100 1017.6
20260505221808 4 203 1.6 3.2 0.00 0.00 0.00 100 1017.7
20260505221313 5 204 1.6 3.2 0.00 0.00 0.00 100 1017.7
20260505221056 5 204 1.6 4.8 0.00 0.00 0.00 100 1017.7
20260505220305 5 204 1.6 4.8 0.00 0.00 0.00 100 1017.7
20260505215809 5 203 1.6 4.8 0.00 0.00 0.00 100 1017.8